STARLINK-1168 (45072 NORAD) Tracking and Keplerian Element Data

This shows tracking and keplerian element data for the satellite.

Feedback or suggestion? Click here.




ElementValue
Catalog45072
NameSTARLINK-1168
Epoch Orbit177
Epoch Day52.91667824
Epoch Year2020
RAAN119.4925
Inclination52.9963
Eccentricity0.0001332
Argument of Perigee49.7351
Mean Anonmoly104.1073
Mean Motion15.73153832
Decay Rate0.0022525
L11 45072U 20006AE 20052.91667824 .00225250 00000-0 15694-2 0 9991
L22 45072 52.9963 119.4925 0001332 49.7351 104.1073 15.73153832 1772

Live tracking and technical data element details for STARLINK-1168 (NORAD 45072). STARLINK-1168 can be tracked NOW for your location showing map with azimuth and elevation plus other details from your city location.

Track the satellite on the map from your city or location and see movement details for azimuth, elevation, latitude, longitude, range, height, and movement on the map or in text.







IsCatalogInMostPopularTable: catalog: 45072, numindb: 6
Update: records affected: 1



GetName: 45072 STARLINK-1168

Hit Count: updated at: Mon, 24 Feb 2020 18:37:20 GMT